Regional Weather Roundup
Issued by NWS

Home | Current Version | Previous Version | Text Only | Print | Product List | Glossary Off
Versions: 1 2 3 4 5 6 7 8 9 10 11 12 13 14 15 16 17 18 19 20 21 22 23 24 25 26 27

000
ASUS45 KCYS 010010
RWRWY

WYOMING REGIONAL WEATHER ROUNDUP
NATIONAL WEATHER SERVICE CHEYENNE WY
600 PM MDT SAT APR 30 2016

NOTE:  "FAIR" INDICATES FEW OR NO CLOUDS BELOW 12,000 FEET
WITH NO SIGNIFICANT WEATHER AND/OR OBSTRUCTIONS TO VISIBILITY.

WYZ001-010100-
YELLOWSTONE NATIONAL PARK

CITY           SKY/WX    TMP DP  RH WIND       PRES   REMARKS
LK YELLOWSTONE   N/A     40  26  57 CALM      30.17R
6HR MIN TEMP:  38; 6HR MAX TEMP:  43;

W YELLOWSTONE  NOT AVBL

$$
WYZ002>013-054>058-071-098>099-010100-
NORTHERN WYOMING

CITY           SKY/WX    TMP DP  RH WIND       PRES   REMARKS
JACKSON        PTSUNNY   48  30  49 N12       30.06R
CODY           CLOUDY    45  30  57 NW20      30.19R
GREYBULL       PTSUNNY   56  24  29 E20G25    30.13R
6HR MIN TEMP:  53; 6HR MAX TEMP:  57; 6HR PCP: TRACE;

WORLAND        CLOUDY    47  36  65 S14       30.15R
6HR MIN TEMP:  45; 6HR MAX TEMP:  50; 6HR PCP:  0.03;

SHERIDAN       CLOUDY    47  35  63 N5        30.23R
6HR MIN TEMP:  42; 6HR MAX TEMP:  53;

BUFFALO          N/A    N/A N/A N/A MISG      30.22R
GILLETTE       PTSUNNY   47  31  53 NE16      30.18R
6HR MIN TEMP:  43; 6HR MAX TEMP:  49;

HULETT         CLOUDY    50  32  50 NE14G20   30.18R
NEWCASTLE      FAIR      46  28  49 N13G18    30.15R

$$
WYZ014>020-022>026-101>103-010100-
CENTRAL WYOMING

CITY           SKY/WX    TMP DP  RH WIND       PRES   REMARKS
BIG PINEY      CLOUDY    42  32  67 S14       30.11R
6HR MIN TEMP:  40; 6HR MAX TEMP:  48; 6HR PCP: TRACE;

PINEDALE       MOCLDY    43  32  65 S9        30.10R
DUBOIS         MOCLDY    37  30  75 SE16G23   30.13R WCI  28
LANDER         LGT RAIN  36  33  89 W5        30.17R WCI  32
6HR MIN TEMP:  33; 6HR MAX TEMP:  40; 6HR PCP:  0.23;

RIVERTON       CLOUDY    41  33  73 E12       30.18R
6HR MIN TEMP:  35; 6HR MAX TEMP:  43; 6HR PCP:  0.07;

CASPER         CLOUDY    40  31  70 NE17      30.16R WCI  31
6HR MIN TEMP:  33; 6HR MAX TEMP:  42; 6HR PCP:  0.07;

DOUGLAS        CLOUDY    41  32  70 NE8       30.16R
6HR MIN TEMP:  35; 6HR MAX TEMP:  41; 6HR PCP:  0.02;


$$
WYZ021-027>030-104>119-010100-
SOUTHERN WYOMING

CITY           SKY/WX    TMP DP  RH WIND       PRES   REMARKS
EVANSTON       PTSUNNY   38  30  73 E23G36    30.07R WCI  27
6HR MIN TEMP:  36; 6HR MAX TEMP:  44; 6HR PCP: TRACE;

KEMMERER         N/A     34  32  93 E23G30    30.10S WCI  22
FORT BRIDGER   CLOUDY    37  37 100 E17G25    30.12R WCI  28
ROCK SPRINGS   PTSUNNY   38  30  73 NE22G29   30.11R WCI  27
6HR MIN TEMP:  36; 6HR MAX TEMP:  40; 6HR PCP: TRACE;

DIXON          FAIR      41  25  52 NE20      30.08R
RAWLINS        CLOUDY    34  30  85 NE15G23   30.12R FOG     WCI  24
6HR MIN TEMP:  33; 6HR MAX TEMP:  36;

SARATOGA       MOCLDY    34  27  75 NE14G23   30.10R WCI  24
LARAMIE        CLOUDY    31  26  82 N13       30.09R WCI  21
6HR MIN TEMP:  28; 6HR MAX TEMP:  32; 6HR PCP: TRACE;

CHEYENNE       LGT SNOW  32  29  88 N15G28    30.07R VSB 3/4 WCI  22
6HR MIN TEMP:  31; 6HR MAX TEMP:  33; 6HR PCP:  0.01;

TORRINGTON     LGT RAIN  39  35  86 N13G23    30.08S WCI  31
6HR MIN TEMP:  36; 6HR MAX TEMP:  39; 6HR PCP:  0.10;

PINE BLUFFS    LGT SNOW  32  32 100 N16       30.08R WCI  21

$$




USA.gov is the U.S. government's official web portal to all federal, state and local government web resources and services.